Theta_e
303 304 305 305 305 306 306 306 306 306 306 306 307 308 308 307 307 305 306 309 301 294 295 298 299 295 296 295 289 293 296 297 295 291 291 290 288 291 294 297 297 299 298 300 301 298 294 311 310 305 316 326 321 318
303 303 303 304 305 305 306 306 306 306 306 306 307 307 308 307 307 306 303 310 309 297 297 303 302 303 301 299 295 297 294 297 296 294 294 294 291 292 291 291 303 294 303 301 303 303 319 317 319 323 323 321 318 320
302 303 303 304 304 305 305 305 306 306 306 306 307 307 307 307 307 307 304 309 307 298 299 301 299 305 307 305 306 295 298 299 299 303 298 296 291 294 287 291 294 301 305 300 302 309 311 314 318 321 320 320 321 321
302 302 303 303 304 304 304 305 305 305 306 307 307 306 306 307 307 306 305 310 305 300 292 297 306 302 309 308 307 302 303 304 303 300 297 295 292 298 292 294 293 297 300 301 302 308 312 314 315 317 318 320 321 321
302 303 303 303 304 304 304 304 305 305 306 307 307 307 306 306 307 307 306 311 309 300 292 295 303 305 306 305 304 305 305 302 298 296 295 293 296 296 297 296 292 297 297 296 299 304 303 313 316 315 319 318 321 320
302 302 303 303 303 303 303 303 304 305 306 306 307 306 306 306 307 305 300 308 311 310 295 291 302 302 304 305 303 302 302 301 299 296 295 297 300 298 292 291 297 299 302 302 300 306 306 308 317 318 318 320 321 319
302 302 302 303 303 303 303 304 305 305 306 306 306 306 306 306 305 301 299 303 303 306 296 291 294 300 303 303 302 300 303 300 299 297 295 296 296 297 294 289 296 300 302 303 304 302 304 309 312 315 317 320 318 320
301 302 302 302 303 303 303 304 305 306 306 306 306 306 305 305 305 303 311 307 305 301 300 291 293 296 303 298 296 303 298 298 298 297 298 295 296 295 290 296 297 298 300 301 302 305 305 308 312 314 317 318 318 317
301 302 302 302 302 303 303 304 305 305 305 305 306 307 307 304 302 306 305 307 307 301 292 293 289 288 301 297 297 300 300 291 299 294 294 296 293 290 294 296 297 299 299 300 303 304 305 304 309 311 313 315 314 316
301 301 302 302 302 303 303 304 305 305 305 306 307 304 299 304 306 307 304 301 299 298 297 292 298 291 297 294 293 295 296 292 289 293 297 293 292 297 299 299 300 301 301 303 301 302 303 305 307 309 309 310 313 314
301 301 301 302 302 303 304 304 304 304 305 306 302 300 306 309 306 302 296 295 297 293 296 298 298 294 299 291 289 293 290 293 287 292 292 290 290 297 302 301 301 302 303 303 306 306 307 308 308 308 308 309 309 313
300 301 301 301 302 303 304 304 304 306 306 302 301 305 307 304 300 293 293 295 293 291 296 296 297 298 298 296 289 290 287 290 285 295 291 288 295 301 303 304 302 304 304 304 305 306 307 308 309 309 309 310 311 311
300 300 301 301 302 303 304 304 304 305 305 309 303 301 298 297 289 288 286 289 291 296 297 297 295 297 299 295 288 288 284 285 289 288 287 289 293 298 301 304 305 304 304 305 304 305 307 308 308 308 309 311 313 315
300 300 301 301 302 304 303 303 304 306 307 302 296 289 293 289 291 292 292 294 297 297 298 298 295 295 297 290 290 285 289 287 285 284 284 290 290 294 298 303 304 305 306 307 306 307 306 306 307 309 309 312 313 314
300 300 301 303 303 302 303 303 304 311 306 298 297 288 292 297 298 298 299 298 301 303 300 299 297 297 295 290 290 289 286 284 285 284 287 288 289 292 294 296 296 297 301 304 308 308 309 308 308 311 313 313 314 315
300 301 304 301 301 301 302 307 311 310 305 300 298 295 298 296 296 297 297 297 301 301 301 299 293 291 290 289 287 284 283 281 284 286 289 295 292 294 295 295 296 297 299 301 304 305 308 311 312 314 315 315 314 318
300 300 301 300 300 301 304 307 308 300 299 296 297 299 298 298 296 297 298 298 302 299 295 294 288 287 292 287 286 285 284 285 288 294 298 300 299 299 299 300 300 299 299 301 302 304 308 314 313 315 316 316 318 321
297 300 300 300 301 303 309 308 303 299 294 298 296 297 299 300 298 298 300 301 300 298 298 295 297 290 287 285 286 290 290 295 298 298 299 301 303 303 302 302 302 302 301 301 303 304 304 306 310 314 313 314 315 318
298 299 299 300 302 301 303 303 305 296 297 298 299 299 299 299 301 301 302 302 302 302 300 297 292 291 292 295 295 296 299 299 299 301 302 304 305 304 303 302 303 303 303 303 303 303 304 305 307 309 310 312 313 315
298 299 300 302 302 303 299 300 306 299 296 298 299 298 298 298 300 301 300 300 300 298 295 293 294 296 296 300 300 300 302 302 301 300 303 304 305 305 304 304 304 304 304 305 305 302 305 305 307 307 307 306 307 308
298 302 303 304 306 306 302 299 298 300 299 297 298 298 297 299 298 297 298 302 297 296 295 297 298 301 303 305 304 305 304 304 302 300 299 300 303 304 304 304 306 305 304 304 303 303 302 305 307 309 308 307 308 310
299 302 301 304 301 301 300 302 299 300 297 297 297 298 296 296 296 296 299 297 296 298 299 298 299 300 301 302 303 305 305 305 304 303 300 300 300 301 302 304 304 303 303 304 304 303 304 305 307 308 308 308 307 309
301 302 301 302 296 294 292 301 296 297 293 294 297 293 294 295 297 300 295 297 298 301 301 301 301 304 302 304 304 304 305 304 302 303 304 303 303 302 302 302 303 302 302 304 304 304 305 297 303 306 307 307 309 308
298 297 294 294 295 290 296 294 298 295 295 293 292 290 291 294 297 294 291 294 298 300 300 300 300 299 302 301 300 301 303 304 303 302 303 303 302 303 302 302 303 305 305 305 305 305 306 307 302 306 306 306 306 306
288 288 291 286 295 292 290 290 292 291 288 290 289 289 292 295 291 290 290 293 296 298 299 299 298 298 298 300 302 300 303 303 302 301 302 303 302 303 303 303 303 304 306 303 303 303 304 305 306 306 306 305 304 304
284 289 288 290 291 290 290 287 288 288 289 288 289 292 295 291 287 286 291 295 297 297 299 298 297 297 298 299 298 300 301 304 303 302 303 303 302 301 300 300 300 302 305 305 304 303 303 303 303 303 303 304 297 305
283 285 292 296 295 294 292 293 293 291 288 286 289 289 289 284 285 290 296 299 297 299 299 299 299 298 298 298 300 301 303 303 304 303 304 304 304 304 303 301 300 302 304 304 305 304 303 302 302 302 302 303 304 305
287 288 285 290 291 294 290 291 289 288 289 292 291 287 286 286 287 294 297 300 300 300 298 298 298 298 298 301 301 300 301 302 303 304 304 304 304 305 304 304 304 290 302 302 303 305 305 303 303 303 302 302 301 303
287 290 289 286 288 291 291 290 290 292 294 292 291 288 290 293 295 296 297 298 298 297 295 295 296 298 298 300 302 302 300 299 298 297 297 296 294 295 301 302 302 303 303 302 286 293 301 301 302 303 302 303 303 301
287 290 288 289 288 288 292 294 293 295 295 294 295 294 294 295 297 299 298 297 296 295 296 296 296 295 294 295 298 299 299 298 298 295 293 294 294 297 298 299 299 300 300 301 300 301 290 297 297 301 299 298 298 296
291 290 288 290 289 292 293 295 295 295 294 294 294 292 291 293 296 298 298 298 297 297 296 295 294 296 298 298 297 296 295 297 297 297 294 295 297 297 297 297 298 299 299 299 298 298 298 297 296 296 296 295 294 292
290 289 288 286 289 294 294 292 292 291 291 291 291 293 292 291 290 294 298 299 297 295 290 294 295 296 298 298 297 297 286 295 295 292 290 291 293 294 294 296 297 297 297 297 297 296 296 295 295 293 292 291 291 290
290 289 290 289 290 289 291 291 290 289 290 292 290 291 291 290 288 293 299 299 297 295 296 297 297 296 296 296 295 294 291 291 286 283 284 283 283 285 292 293 294 296 295 295 295 294 293 292 291 290 289 288 287 287
Wind_Speed
23 24 24 23 23 22 21 21 21 21 21 23 22 20 16 12 8 3 6 5 4 4 16 19 13 9 10 6 3 10 9 8 6 8 6 6 6 8 10 16 11 15 15 13 15 15 13 14 18 22 7 5 6 15
23 24 24 23 23 23 22 21 21 21 21 21 21 17 15 11 8 7 5 5 3 4 12 19 17 12 13 15 3 5 7 9 6 6 2 3 7 1 10 6 12 9 5 10 9 10 5 10 8 8 10 8 9 16
25 24 24 24 23 23 23 23 22 21 21 21 19 18 16 13 12 10 7 6 5 5 13 5 9 16 12 14 11 4 3 6 6 3 5 3 5 3 2 4 11 8 11 7 11 13 13 12 10 8 12 10 10 10
25 25 25 25 24 23 24 23 23 22 21 20 20 18 17 15 13 11 7 5 4 4 6 6 4 2 17 14 16 12 8 6 6 7 3 3 2 10 7 9 10 11 12 14 14 15 10 8 10 9 13 8 11 9
24 24 25 26 25 24 25 25 24 23 21 20 20 18 17 15 13 11 9 4 3 4 5 11 17 6 4 6 8 9 6 7 8 8 5 8 6 2 6 5 9 8 4 5 5 18 12 12 10 25 12 6 2 13
24 25 25 27 26 25 27 26 24 24 23 22 21 19 16 14 10 7 2 2 3 3 5 6 7 6 13 10 8 10 6 8 9 9 9 1 7 1 2 8 7 8 16 10 14 15 17 24 10 12 28 9 11 14
25 26 26 27 27 25 25 26 26 25 24 23 20 18 14 8 6 4 4 6 9 8 2 6 5 3 11 8 8 8 10 7 8 9 9 11 8 5 6 12 13 10 17 9 11 18 15 24 6 9 23 14 9 11
26 27 26 27 28 26 25 26 26 26 24 23 18 13 10 8 9 6 1 2 4 4 3 4 5 4 4 4 5 6 6 6 6 10 11 9 10 10 12 14 14 14 16 15 13 18 16 23 25 4 15 9 17 14
26 27 27 27 28 27 25 25 26 27 25 23 17 12 4 6 3 1 3 6 4 4 3 3 4 4 4 3 3 3 2 4 5 10 11 9 10 12 14 17 18 15 11 17 13 18 22 21 22 12 14 10 3 4
26 28 28 28 28 27 25 24 25 26 26 23 7 5 2 2 2 6 4 3 4 4 4 7 1 4 4 1 3 3 4 3 3 8 8 11 13 18 21 18 17 15 15 14 16 13 16 17 19 18 14 12 8 7
27 28 28 28 28 28 24 22 24 27 15 4 5 4 7 5 4 2 3 3 3 4 4 4 7 7 4 3 2 3 4 4 4 3 3 5 12 13 20 21 18 18 17 16 14 15 16 13 16 15 16 12 12 10
28 28 28 28 28 27 24 22 21 12 7 6 5 7 5 4 2 5 5 2 2 5 6 9 12 9 3 3 1 1 3 4 5 9 3 5 9 17 16 20 21 18 20 17 15 15 11 13 16 17 14 11 13 14
28 29 29 28 27 25 23 21 21 16 15 4 4 4 4 4 7 7 8 6 6 8 9 12 11 6 2 3 1 1 3 4 6 3 4 4 11 15 15 17 9 15 20 18 17 15 16 18 16 18 17 16 15 13
28 30 29 28 24 20 24 23 19 12 6 3 5 6 5 4 4 3 7 6 5 7 12 10 5 2 2 0 1 3 1 3 3 4 6 5 12 16 15 13 12 14 16 15 12 17 18 17 17 18 19 16 15 16
27 31 29 18 18 26 27 27 21 5 3 3 3 4 3 4 8 3 6 7 5 7 5 5 0 3 5 4 4 4 7 5 4 4 5 5 13 12 14 13 14 12 11 8 9 9 16 18 17 18 16 17 20 19
26 29 8 26 27 29 31 21 7 5 2 2 2 4 8 8 9 8 9 10 10 9 8 5 5 5 5 5 4 5 9 4 4 4 9 7 2 4 7 11 11 10 10 9 7 10 15 21 20 18 19 20 21 24
22 6 23 26 29 30 24 6 4 3 3 2 3 1 6 8 9 10 9 9 9 7 6 4 6 5 3 5 5 4 4 6 9 9 7 4 3 2 4 5 6 13 15 13 13 13 13 10 9 17 8 8 6 13
9 16 24 26 22 15 7 5 3 4 5 4 2 5 5 5 5 7 7 8 7 9 7 3 1 4 4 5 4 2 4 5 7 9 8 4 1 2 8 8 9 7 10 12 10 9 13 15 10 9 10 11 6 12
17 18 25 23 8 4 6 3 1 4 4 6 6 5 7 5 4 5 7 6 6 8 4 4 5 4 1 4 5 6 4 3 3 4 8 12 7 11 9 5 6 9 9 10 11 11 9 9 9 9 7 8 7 8
29 25 18 13 5 5 6 4 3 5 4 5 8 4 7 5 6 3 5 5 6 5 5 4 4 6 5 3 5 6 7 11 4 4 2 1 4 6 7 7 5 3 4 8 8 10 8 5 5 7 6 7 7 7
16 1 9 6 4 9 6 5 4 3 3 4 7 7 6 5 7 6 4 4 5 0 2 4 6 7 6 1 4 5 7 8 7 8 9 7 8 12 11 9 6 9 7 6 7 7 7 6 7 5 5 4 3 3
8 7 6 5 4 5 6 7 4 5 5 8 8 6 5 4 8 6 4 1 4 2 4 6 6 7 8 13 1 4 7 9 7 7 9 9 9 9 8 10 9 8 6 10 8 7 7 6 7 8 9 8 8 7
11 3 5 6 5 4 7 6 6 8 4 4 4 5 5 4 6 5 1 2 5 1 2 4 8 9 7 10 19 13 10 6 5 7 7 9 9 8 8 9 8 7 8 6 5 9 9 11 11 10 7 6 6 6
2 5 5 5 8 6 6 6 4 3 4 4 4 8 8 7 6 4 8 6 3 3 1 2 6 3 1 3 3 9 9 7 9 10 7 8 8 7 8 8 9 10 9 9 6 4 6 7 7 7 9 10 8 5
5 6 4 7 6 7 5 6 9 6 7 7 9 8 6 6 4 8 12 7 4 7 3 4 6 6 4 4 1 5 13 6 5 6 7 5 6 5 7 6 8 9 9 6 7 10 10 7 7 9 9 9 9 15
7 7 7 7 5 6 7 5 7 10 10 9 5 3 2 4 8 8 8 3 5 2 2 3 2 4 6 6 6 8 6 7 7 5 8 8 7 6 5 6 7 8 9 10 9 11 10 11 9 12 12 14 13 11
8 8 7 8 8 6 5 6 7 4 4 4 4 7 3 5 6 5 6 2 2 1 4 4 2 4 3 5 6 6 6 8 4 5 5 5 5 5 6 7 7 5 7 9 10 10 11 10 8 8 7 7 9 11
8 7 13 9 9 8 13 10 8 6 6 6 6 7 5 6 5 3 4 1 5 2 4 5 6 7 5 1 4 7 8 7 8 5 5 5 5 3 3 5 4 0 5 7 9 9 9 8 10 11 11 12 10 11
8 6 9 12 14 11 12 11 13 8 7 8 8 9 11 9 8 6 4 5 5 6 6 7 5 5 5 7 3 2 6 8 9 8 7 7 7 8 6 5 5 5 6 7 5 7 8 9 9 10 11 9 9 10
11 10 10 14 17 16 11 8 9 10 10 10 10 8 7 7 6 4 5 6 6 6 6 4 5 7 9 7 3 5 6 8 6 6 7 4 3 2 5 6 6 6 6 6 7 5 6 3 7 8 9 9 8 8
6 9 13 13 13 9 9 10 10 10 10 9 7 7 8 9 8 6 6 7 4 5 4 5 5 5 7 6 5 3 3 3 4 5 8 8 8 7 7 7 6 5 5 5 6 7 6 8 7 8 9 10 11 10
10 14 10 13 11 9 9 10 10 11 11 10 11 11 11 9 8 6 7 4 4 6 2 2 7 6 6 4 4 4 2 2 7 8 9 7 8 8 9 7 5 5 4 4 6 5 7 7 6 8 9 11 11 12
9 10 10 8 7 9 7 9 9 11 10 6 9 11 12 11 11 5 4 6 7 8 9 8 7 7 7 6 6 4 7 8 9 6 5 6 8 9 7 8 8 6 7 7 7 7 8 10 9 10 11 11 11 12
Wind_Direction
337 336 336 338 337 333 330 329 330 333 335 339 343 348 353 353 360 297 290 242 247 271 287 277 280 281 281 314 323 318 306 240 239 238 195 185 251 354 303 302 312 228 178 207 211 228 218 231 217 217 151 232 234 193
336 337 333 333 333 330 329 326 325 328 331 334 336 341 346 345 347 320 294 312 251 230 278 290 283 273 238 266 230 274 354 344 17 290 215 307 241 138 341 300 254 292 173 231 228 216 253 247 288 138 147 219 235 190
334 333 328 327 329 328 326 326 325 324 323 323 327 332 331 320 324 324 299 314 294 269 280 275 264 212 211 228 214 298 33 311 319 1 328 311 319 217 203 287 322 279 5 315 339 264 231 245 262 165 171 202 180 175
329 330 326 323 325 326 325 324 322 322 321 319 317 322 322 320 313 313 291 320 292 290 285 308 310 195 208 205 212 203 246 241 263 279 282 291 279 317 290 257 276 311 340 327 311 281 313 237 341 161 176 194 173 172
326 326 326 323 323 326 326 324 320 317 317 317 318 315 316 314 308 290 272 256 252 320 310 304 297 317 312 287 253 255 255 270 282 275 227 265 262 195 243 289 269 277 327 301 343 337 322 285 14 328 212 171 6 173
325 324 327 324 323 326 329 325 318 315 316 318 317 311 309 306 304 298 290 332 294 16 309 309 318 347 358 320 273 265 249 253 278 279 285 333 294 285 301 267 250 272 272 255 285 305 312 308 43 343 296 67 8 342
324 323 326 325 323 326 328 322 316 314 317 317 315 308 303 282 265 278 300 338 332 305 246 280 294 339 342 305 295 285 282 250 241 253 266 277 249 201 258 271 286 309 289 246 267 300 292 300 268 232 296 109 95 337
324 323 325 325 323 325 325 321 318 317 321 319 319 317 300 279 267 267 214 239 291 277 257 279 287 324 359 333 314 340 295 281 260 264 258 257 255 235 235 255 264 261 255 272 289 266 256 282 296 67 273 271 143 248
325 324 325 326 325 325 324 321 320 321 320 314 311 302 264 224 217 3 197 241 233 276 296 251 273 296 322 22 295 263 269 270 272 247 244 254 250 234 238 237 240 256 261 251 241 249 264 237 258 270 269 271 314 339
326 325 324 326 326 323 322 322 323 320 315 301 276 217 249 41 287 275 194 197 205 206 224 265 139 279 288 354 292 285 218 264 262 257 255 241 249 259 258 254 262 267 235 222 248 241 275 271 272 233 263 280 277 293
325 325 324 326 327 322 320 324 327 323 285 321 338 320 344 307 259 243 277 242 205 239 224 310 319 304 166 237 249 315 315 302 266 290 297 234 244 247 239 249 244 247 261 244 234 243 236 247 262 279 254 275 282 269
323 323 324 324 325 320 314 325 329 315 357 337 295 284 267 255 239 291 302 280 276 341 335 336 333 325 103 113 182 249 282 275 265 342 246 253 14 0 346 323 230 237 249 246 227 225 268 266 268 282 288 278 281 272
322 321 323 323 322 317 317 326 323 304 283 235 228 265 4 303 16 346 330 353 333 324 320 328 323 325 93 91 163 235 248 260 329 273 262 68 335 333 340 323 321 228 233 249 244 239 214 241 247 261 277 279 279 285
321 319 321 323 314 312 324 326 322 324 270 300 319 332 2 2 290 307 309 315 275 260 302 315 302 304 274 63 220 287 300 275 280 307 346 331 331 336 325 338 323 338 335 317 265 251 248 239 238 248 232 261 276 279
321 316 317 311 327 337 329 323 310 277 279 306 336 343 357 262 281 345 336 346 340 325 321 330 7 328 24 5 16 328 337 340 352 314 298 300 327 328 352 7 13 8 345 327 342 310 287 250 238 245 233 232 240 241
324 309 353 356 344 333 321 314 261 250 275 278 348 320 333 359 335 4 350 353 346 354 8 30 10 5 15 346 342 14 325 332 298 292 290 306 152 56 54 41 13 356 351 353 3 326 277 255 242 238 224 232 235 236
313 273 339 334 330 319 306 278 282 252 259 287 277 291 279 327 12 336 355 355 345 338 31 40 19 358 347 336 345 1 334 291 296 327 328 316 40 338 258 318 29 25 359 7 350 325 328 270 288 224 118 20 24 83
293 313 319 323 326 299 286 214 280 260 263 264 269 303 333 338 329 340 352 2 346 340 1 58 116 18 19 340 317 296 240 262 315 329 337 231 310 31 42 17 25 28 3 9 321 15 29 20 35 106 93 87 356 83
303 298 302 299 293 308 276 256 245 282 284 323 291 326 313 322 330 303 341 345 0 345 358 19 14 359 3 239 332 347 315 251 285 347 345 342 41 53 96 87 355 22 13 341 2 25 21 346 28 36 53 76 58 43
295 291 282 276 194 267 272 252 171 243 259 284 301 289 290 311 308 334 295 345 2 15 23 12 351 323 352 8 358 344 342 305 342 350 75 281 321 83 62 51 98 101 29 339 25 44 8 11 30 37 37 42 48 33
295 233 289 299 223 216 279 280 265 274 254 252 283 298 308 316 303 307 337 68 345 346 18 304 20 321 353 272 86 313 320 325 350 35 4 10 35 52 12 53 10 38 47 27 37 28 30 25 44 93 80 68 41 77
263 306 296 248 251 248 236 242 244 301 287 263 274 281 288 308 282 280 299 324 170 249 337 331 342 353 9 347 21 244 355 354 7 359 8 38 29 26 48 38 16 51 43 14 9 47 26 360 16 45 58 66 70 53
273 250 236 242 239 263 258 260 248 244 258 286 344 317 279 270 299 303 308 246 225 319 291 351 333 23 12 350 324 355 2 342 349 357 32 8 13 44 38 26 38 33 22 42 33 29 17 3 20 18 22 35 46 46
211 251 248 233 206 237 248 230 218 232 268 260 259 264 282 279 280 282 275 252 286 184 211 348 319 339 28 338 31 341 336 15 356 358 345 47 358 6 47 46 20 16 36 17 19 10 32 45 48 29 29 18 15 45
268 256 227 245 264 229 233 231 222 229 235 242 259 261 272 284 283 285 292 286 117 277 121 60 333 327 337 331 34 183 264 354 48 295 329 29 157 260 61 12 56 29 6 38 20 8 49 36 28 32 46 30 33 41
234 234 214 219 227 212 206 214 208 230 235 233 240 248 263 280 263 263 263 253 142 359 35 60 35 333 324 335 0 321 345 345 5 4 343 348 20 5 0 15 30 39 13 347 8 35 24 67 50 41 31 24 27 39
241 241 227 244 253 229 227 239 239 253 231 236 235 237 250 248 250 262 68 23 29 351 10 5 350 273 285 306 319 319 329 315 359 356 329 359 30 6 16 27 33 12 17 1 351 40 18 23 57 69 49 28 37 39
235 246 230 231 232 249 248 243 233 227 234 224 229 200 199 206 233 299 8 243 241 267 313 317 305 294 281 224 285 317 315 315 314 273 304 358 358 12 13 93 64 94 39 36 11 25 9 20 34 52 60 55 41 36
229 229 231 236 240 231 229 232 231 225 241 246 213 214 245 257 278 293 257 235 250 272 279 273 282 310 290 204 176 309 342 330 339 339 1 42 39 324 333 16 20 25 10 99 56 46 41 38 35 31 39 44 53 59
238 225 239 239 246 227 223 209 237 239 241 247 254 253 248 241 252 292 291 278 269 275 288 301 307 308 304 306 155 86 28 329 7 3 356 18 83 72 9 359 4 14 15 6 359 56 52 71 50 43 49 48 45 45
242 208 221 229 242 228 234 258 266 247 243 253 259 261 255 255 251 250 263 274 291 288 284 292 315 2 26 11 32 93 133 55 43 40 11 335 350 16 5 338 354 7 18 24 28 10 26 55 54 50 56 58 59 59
234 231 223 216 224 238 251 264 268 250 242 234 234 244 256 261 277 338 22 344 295 307 8 330 30 67 75 88 106 108 170 81 48 28 11 353 353 356 335 328 354 1 8 57 70 53 52 61 67 69 59 60 60 60
245 259 244 248 257 250 235 237 247 262 270 273 274 277 278 282 282 84 62 38 36 32 40 51 67 61 58 53 75 82 65 77 90 84 60 32 13 351 2 11 342 19 41 39 58 62 64 74 74 73 71 66 61 57